Temp
-12 -12 -12 -12 -12 -12 -12 -12 -12 -12 -12 -12 -12 -12 -12 -12 -12 -12 -13 -13 -14 -14 -14 -14 -13 -13 -13 -12 -12 -13 -12 -12 -13 -13 -13 -13 -13 -13 -12 -12 -12 -11 -11 -11 -11 -11 -11
-13 -12 -12 -12 -13 -13 -13 -13 -13 -13 -13 -13 -13 -13 -13 -13 -13 -13 -14 -14 -14 -14 -14 -14 -14 -14 -13 -12 -14 -14 -13 -13 -13 -13 -13 -13 -13 -13 -13 -12 -12 -12 -12 -11 -11 -11 -11
-13 -13 -13 -13 -13 -13 -14 -14 -14 -14 -14 -14 -14 -14 -14 -14 -15 -15 -15 -15 -15 -15 -15 -15 -15 -14 -14 -13 -14 -14 -14 -14 -14 -14 -14 -14 -13 -13 -13 -13 -12 -12 -12 -12 -11 -11 -11
-13 -14 -14 -13 -14 -14 -14 -15 -15 -15 -15 -15 -15 -15 -15 -16 -16 -16 -16 -16 -16 -16 -16 -16 -16 -16 -15 -14 -14 -15 -15 -15 -15 -15 -15 -15 -14 -14 -13 -13 -12 -12 -12 -12 -12 -11 -11
-14 -14 -14 -14 -15 -15 -15 -15 -15 -16 -16 -16 -16 -17 -18 -18 -18 -17 -17 -17 -17 -16 -16 -16 -16 -16 -16 -15 -15 -15 -15 -15 -15 -15 -15 -16 -15 -15 -14 -13 -13 -12 -12 -12 -12 -12 -12
-15 -15 -15 -15 -16 -16 -16 -17 -17 -17 -17 -18 -18 -18 -18 -18 -18 -17 -17 -17 -16 -16 -16 -16 -16 -16 -15 -15 -15 -15 -15 -15 -15 -16 -16 -16 -16 -15 -14 -14 -12 -13 -13 -13 -12 -12 -12
-16 -16 -16 -16 -16 -17 -17 -18 -18 -18 -18 -19 -19 -19 -18 -18 -18 -17 -17 -17 -16 -16 -16 -17 -18 -16 -16 -16 -16 -16 -15 -15 -15 -16 -16 -16 -16 -15 -14 -14 -14 -14 -14 -13 -13 -13 -12
-16 -16 -16 -16 -17 -18 -18 -19 -19 -19 -19 -19 -19 -19 -18 -18 -18 -17 -17 -17 -18 -18 -17 -21 -19 -20 -19 -20 -18 -17 -17 -16 -16 -17 -17 -16 -15 -15 -16 -15 -15 -14 -14 -14 -14 -14 -14
-16 -16 -16 -17 -18 -18 -19 -19 -20 -20 -19 -19 -19 -19 -19 -19 -18 -19 -19 -20 -21 -22 -21 -24 -25 -24 -23 -22 -20 -22 -20 -19 -19 -19 -18 -17 -16 -17 -16 -16 -15 -15 -14 -15 -15 -15 -14
-16 -16 -17 -18 -18 -19 -20 -20 -20 -20 -20 -19 -19 -19 -19 -19 -19 -21 -22 -22 -23 -23 -24 -25 -25 -26 -26 -25 -24 -25 -23 -22 -21 -20 -19 -18 -17 -16 -16 -16 -16 -15 -16 -16 -15 -15 -15
-17 -17 -18 -19 -20 -21 -21 -20 -20 -20 -20 -20 -20 -19 -20 -20 -21 -22 -23 -23 -24 -26 -25 -25 -25 -26 -26 -26 -25 -26 -25 -23 -22 -21 -20 -18 -18 -17 -17 -17 -17 -16 -17 -17 -16 -15 -16
-17 -17 -19 -20 -22 -21 -21 -21 -20 -20 -20 -20 -20 -20 -20 -22 -22 -23 -24 -25 -26 -26 -26 -25 -25 -25 -25 -25 -25 -25 -24 -24 -23 -22 -21 -20 -19 -18 -18 -18 -18 -18 -18 -17 -18 -17 -16
-18 -19 -20 -22 -22 -22 -22 -21 -21 -21 -21 -20 -20 -20 -21 -22 -23 -23 -25 -26 -26 -26 -26 -25 -25 -25 -25 -25 -24 -24 -24 -23 -23 -22 -21 -20 -20 -19 -19 -19 -18 -18 -18 -19 -18 -17 -16
-19 -20 -23 -23 -23 -22 -22 -21 -21 -21 -21 -21 -20 -21 -22 -23 -23 -24 -25 -26 -27 -26 -25 -25 -25 -24 -24 -24 -25 -24 -24 -23 -23 -22 -22 -22 -21 -20 -19 -19 -20 -20 -20 -20 -20 -19 -18
-21 -23 -24 -24 -23 -23 -22 -21 -21 -21 -21 -21 -21 -22 -22 -23 -23 -25 -26 -26 -27 -26 -26 -26 -26 -24 -24 -24 -24 -23 -23 -23 -22 -22 -23 -23 -22 -21 -21 -20 -20 -20 -19 -21 -20 -20 -19
-23 -24 -24 -24 -23 -23 -22 -22 -22 -21 -22 -22 -22 -22 -23 -24 -24 -25 -26 -26 -26 -26 -26 -26 -26 -26 -25 -24 -23 -22 -23 -23 -23 -22 -23 -22 -22 -22 -21 -21 -21 -21 -21 -21 -21 -20 -20
-23 -25 -24 -24 -24 -23 -22 -22 -22 -22 -22 -22 -23 -23 -23 -24 -25 -25 -26 -26 -26 -26 -26 -26 -26 -26 -26 -24 -23 -23 -23 -23 -23 -23 -23 -22 -23 -22 -22 -22 -21 -21 -21 -21 -21 -20 -19
-24 -25 -25 -24 -24 -23 -23 -23 -22 -22 -22 -22 -23 -23 -24 -24 -25 -26 -26 -26 -26 -26 -26 -26 -26 -25 -25 -25 -25 -24 -23 -23 -22 -22 -23 -23 -22 -22 -22 -21 -21 -21 -22 -22 -21 -20 -19
-25 -24 -25 -25 -24 -24 -23 -23 -23 -23 -22 -23 -23 -23 -24 -25 -25 -26 -26 -26 -26 -26 -26 -25 -25 -25 -25 -24 -24 -24 -24 -24 -23 -23 -23 -22 -22 -22 -22 -22 -22 -22 -21 -20 -20 -19 -19
-26 -25 -25 -25 -24 -24 -24 -23 -23 -23 -23 -23 -23 -23 -24 -25 -26 -26 -26 -26 -26 -26 -26 -26 -25 -25 -25 -24 -24 -24 -24 -24 -24 -24 -23 -23 -23 -22 -22 -22 -22 -21 -21 -21 -20 -20 -19
-26 -26 -25 -25 -25 -25 -24 -24 -23 -23 -23 -23 -24 -24 -24 -25 -26 -26 -26 -26 -26 -26 -26 -26 -26 -26 -25 -25 -25 -24 -24 -24 -23 -23 -24 -24 -24 -23 -23 -22 -22 -22 -21 -21 -20 -20 -19
-25 -26 -25 -26 -26 -25 -25 -24 -23 -24 -24 -23 -24 -24 -24 -24 -25 -26 -25 -26 -26 -26 -26 -26 -25 -25 -25 -25 -25 -24 -24 -24 -24 -23 -23 -23 -23 -23 -22 -22 -22 -22 -21 -21 -21 -20 -20
-25 -25 -26 -26 -26 -25 -24 -24 -24 -24 -24 -24 -24 -24 -24 -24 -25 -25 -25 -26 -26 -25 -25 -25 -25 -25 -25 -26 -26 -26 -26 -25 -25 -24 -25 -23 -23 -23 -23 -22 -22 -21 -21 -21 -21 -20 -20
-25 -26 -26 -25 -25 -25 -25 -25 -24 -24 -25 -24 -24 -24 -24 -24 -24 -24 -25 -25 -25 -25 -25 -25 -25 -25 -26 -26 -26 -26 -27 -27 -26 -26 -25 -25 -24 -23 -22 -22 -22 -21 -21 -21 -21 -20 -20
-26 -26 -26 -26 -26 -25 -25 -25 -24 -24 -25 -24 -24 -24 -24 -24 -24 -24 -24 -24 -24 -24 -25 -25 -25 -25 -26 -26 -27 -26 -26 -26 -26 -26 -25 -25 -24 -24 -23 -22 -22 -22 -21 -21 -21 -21 -21
-26 -26 -26 -25 -25 -25 -25 -25 -25 -24 -25 -25 -24 -24 -24 -24 -23 -24 -24 -24 -24 -24 -24 -25 -25 -25 -26 -26 -26 -26 -26 -26 -26 -26 -25 -25 -24 -24 -23 -23 -23 -22 -22 -22 -21 -21 -21
-26 -26 -25 -25 -25 -26 -26 -25 -25 -25 -25 -25 -25 -24 -24 -24 -24 -24 -24 -24 -24 -24 -24 -25 -25 -25 -26 -26 -26 -26 -26 -26 -26 -25 -25 -24 -24 -24 -24 -23 -23 -22 -22 -22 -22 -22 -21
-26 -26 -26 -26 -26 -26 -26 -25 -25 -25 -25 -25 -25 -24 -24 -24 -24 -24 -24 -24 -24 -24 -25 -25 -25 -25 -26 -26 -26 -26 -26 -26 -26 -26 -25 -25 -24 -24 -24 -24 -23 -23 -22 -22 -22 -22 -21
-27 -27 -27 -27 -26 -26 -26 -26 -25 -26 -25 -25 -26 -25 -25 -25 -25 -24 -24 -24 -24 -25 -25 -25 -25 -25 -26 -26 -27 -26 -26 -26 -26 -26 -25 -25 -25 -24 -24 -24 -24 -23 -23 -23 -22 -22 -22
Height
5737 5738 5737 5736 5734 5733 5730 5729 5727 5725 5723 5721 5719 5717 5715 5713 5711 5709 5707 5705 5704 5702 5701 5701 5701 5703 5706 5708 5712 5704 5705 5709 5714 5717 5720 5723 5726 5731 5735 5739 5742 5742 5747 5750 5754 5758 5760
5726 5726 5726 5725 5724 5722 5720 5718 5716 5713 5712 5710 5708 5706 5703 5701 5699 5697 5695 5693 5691 5689 5687 5685 5684 5685 5687 5694 5698 5689 5689 5691 5695 5701 5704 5707 5710 5716 5722 5726 5730 5733 5733 5736 5741 5746 5750
5715 5715 5714 5714 5713 5711 5709 5707 5705 5703 5701 5699 5697 5694 5691 5689 5686 5685 5683 5681 5679 5676 5674 5670 5666 5665 5669 5681 5679 5673 5674 5675 5679 5683 5687 5691 5694 5699 5708 5712 5718 5722 5724 5727 5729 5732 5738
5703 5703 5702 5702 5701 5699 5698 5696 5694 5693 5691 5689 5687 5684 5681 5678 5675 5672 5669 5666 5663 5660 5657 5652 5646 5644 5647 5659 5659 5657 5655 5661 5662 5666 5669 5673 5678 5684 5691 5697 5704 5709 5713 5717 5719 5719 5726
5691 5691 5691 5690 5689 5689 5688 5686 5684 5682 5681 5678 5677 5673 5669 5665 5661 5658 5655 5650 5645 5642 5640 5633 5627 5622 5630 5634 5636 5638 5638 5646 5645 5649 5653 5653 5662 5670 5675 5683 5688 5695 5701 5703 5707 5707 5715
5679 5680 5680 5679 5679 5679 5678 5676 5674 5672 5671 5668 5664 5662 5658 5653 5648 5643 5639 5633 5627 5625 5620 5607 5596 5595 5611 5604 5607 5614 5619 5623 5627 5632 5633 5639 5646 5653 5661 5666 5678 5679 5684 5690 5693 5700 5706
5667 5668 5668 5667 5668 5668 5666 5664 5664 5662 5660 5657 5655 5651 5646 5639 5633 5628 5622 5616 5610 5601 5603 5579 5561 5551 5569 5566 5570 5582 5592 5599 5608 5613 5618 5624 5630 5643 5654 5653 5662 5661 5666 5675 5680 5684 5691
5657 5657 5657 5658 5657 5657 5656 5656 5654 5652 5651 5648 5645 5641 5635 5626 5619 5613 5604 5595 5584 5570 5565 5550 5532 5521 5518 5521 5532 5547 5564 5576 5587 5597 5600 5611 5623 5634 5631 5637 5642 5646 5652 5661 5663 5668 5675
5647 5648 5647 5648 5648 5648 5648 5647 5646 5644 5642 5639 5635 5631 5624 5615 5605 5597 5587 5578 5564 5546 5534 5524 5514 5503 5495 5493 5506 5520 5537 5554 5568 5578 5589 5600 5614 5615 5619 5622 5628 5634 5643 5650 5651 5652 5661
5637 5637 5637 5638 5639 5639 5639 5639 5638 5635 5632 5630 5626 5621 5614 5604 5595 5584 5573 5561 5547 5531 5523 5519 5511 5503 5494 5488 5494 5511 5526 5539 5552 5568 5578 5586 5593 5602 5607 5612 5617 5623 5631 5633 5637 5641 5652
5626 5627 5627 5629 5630 5631 5631 5630 5629 5627 5624 5621 5618 5612 5602 5591 5583 5573 5560 5548 5536 5527 5523 5517 5509 5505 5498 5494 5500 5509 5521 5530 5545 5558 5570 5580 5585 5593 5598 5603 5604 5615 5613 5620 5625 5632 5637
5616 5616 5618 5620 5622 5623 5623 5622 5621 5619 5616 5613 5608 5602 5592 5583 5573 5562 5548 5541 5533 5530 5522 5515 5509 5505 5502 5501 5504 5510 5518 5529 5539 5549 5558 5567 5575 5582 5588 5592 5598 5601 5606 5613 5618 5623 5628
5606 5607 5609 5613 5614 5615 5614 5614 5613 5611 5608 5604 5600 5593 5583 5575 5565 5554 5544 5539 5535 5531 5526 5519 5513 5510 5508 5508 5511 5514 5520 5528 5537 5545 5552 5559 5567 5574 5580 5585 5591 5594 5600 5605 5612 5615 5624
5595 5598 5602 5605 5607 5608 5607 5607 5605 5603 5600 5596 5591 5583 5575 5566 5557 5548 5542 5537 5534 5531 5524 5520 5515 5514 5511 5514 5516 5518 5524 5529 5535 5542 5549 5556 5562 5567 5575 5580 5587 5591 5595 5601 5605 5611 5618
5586 5591 5594 5597 5599 5599 5600 5599 5598 5596 5593 5588 5583 5575 5568 5559 5551 5543 5539 5535 5533 5531 5525 5519 5518 5516 5518 5519 5521 5521 5525 5529 5534 5540 5546 5552 5558 5562 5569 5574 5581 5584 5587 5596 5599 5604 5609
5578 5582 5586 5589 5590 5591 5592 5592 5591 5589 5585 5581 5574 5568 5560 5553 5546 5540 5536 5534 5530 5529 5525 5521 5520 5518 5516 5521 5521 5520 5524 5529 5533 5538 5543 5549 5553 5559 5563 5570 5574 5578 5587 5590 5594 5599 5605
5569 5574 5578 5580 5582 5584 5584 5585 5584 5582 5579 5574 5568 5561 5554 5548 5542 5538 5534 5532 5529 5528 5526 5522 5523 5520 5519 5517 5520 5521 5524 5529 5532 5537 5541 5546 5552 5556 5560 5564 5570 5575 5580 5586 5591 5596 5600
5560 5565 5569 5571 5574 5575 5577 5577 5577 5574 5572 5568 5562 5557 5550 5544 5540 5535 5533 5530 5528 5528 5526 5522 5523 5523 5521 5521 5521 5522 5522 5525 5531 5535 5539 5543 5547 5552 5555 5559 5565 5569 5574 5580 5585 5591 5594
5551 5556 5559 5562 5565 5568 5569 5571 5570 5568 5566 5562 5558 5552 5547 5541 5536 5534 5532 5529 5527 5527 5527 5526 5523 5524 5524 5523 5524 5526 5525 5524 5528 5530 5534 5539 5543 5549 5553 5558 5560 5565 5571 5576 5580 5583 5587
5541 5546 5550 5554 5557 5559 5562 5564 5563 5562 5560 5557 5554 5549 5544 5538 5534 5532 5531 5529 5526 5526 5525 5525 5525 5525 5524 5524 5525 5525 5527 5528 5530 5531 5534 5537 5541 5546 5552 5554 5557 5561 5565 5569 5574 5577 5581
5531 5536 5542 5545 5547 5551 5554 5556 5556 5555 5553 5552 5550 5545 5541 5536 5533 5531 5530 5528 5526 5526 5525 5524 5524 5524 5524 5524 5523 5523 5524 5525 5528 5530 5532 5536 5540 5544 5547 5550 5553 5558 5561 5565 5569 5572 5575
5522 5526 5531 5536 5540 5543 5546 5548 5549 5549 5548 5547 5545 5541 5539 5534 5531 5530 5529 5528 5526 5525 5524 5524 5524 5523 5522 5522 5521 5520 5519 5520 5523 5526 5528 5532 5537 5541 5545 5548 5551 5554 5558 5561 5565 5567 5570
5512 5516 5522 5527 5531 5534 5538 5541 5543 5543 5542 5541 5539 5538 5536 5533 5529 5528 5528 5526 5525 5523 5524 5523 5521 5520 5519 5518 5516 5515 5513 5512 5516 5521 5524 5527 5530 5536 5540 5543 5547 5550 5553 5557 5560 5562 5565
5501 5507 5512 5517 5521 5526 5530 5533 5535 5536 5536 5536 5535 5534 5534 5531 5529 5527 5526 5525 5524 5524 5522 5522 5520 5519 5518 5515 5514 5512 5508 5507 5510 5515 5519 5524 5527 5530 5534 5537 5541 5544 5549 5552 5555 5557 5559
5493 5498 5503 5508 5513 5517 5521 5524 5526 5528 5529 5530 5529 5530 5530 5527 5527 5527 5525 5524 5523 5522 5521 5520 5519 5518 5516 5515 5514 5512 5511 5511 5512 5514 5516 5520 5523 5527 5529 5532 5535 5538 5542 5546 5549 5552 5554
5483 5488 5493 5498 5503 5508 5512 5515 5518 5520 5522 5524 5524 5525 5525 5524 5522 5523 5523 5522 5521 5520 5520 5519 5517 5516 5515 5515 5514 5513 5513 5513 5514 5516 5518 5521 5521 5524 5526 5529 5532 5534 5538 5539 5542 5545 5549
5472 5477 5483 5488 5493 5498 5502 5507 5510 5513 5515 5517 5518 5519 5519 5518 5517 5518 5519 5518 5518 5518 5518 5517 5515 5515 5514 5514 5515 5514 5514 5514 5515 5516 5517 5518 5520 5522 5524 5525 5528 5530 5532 5535 5539 5544 5544
5460 5466 5472 5478 5483 5489 5494 5498 5502 5505 5508 5511 5512 5513 5514 5513 5512 5512 5513 5514 5514 5515 5515 5515 5514 5513 5512 5512 5514 5514 5514 5515 5515 5516 5516 5517 5519 5521 5522 5523 5526 5526 5528 5531 5534 5536 5540
5450 5457 5463 5469 5475 5481 5485 5490 5493 5497 5500 5503 5506 5506 5507 5509 5508 5507 5508 5509 5509 5510 5511 5509 5510 5510 5510 5510 5512 5513 5513 5514 5514 5515 5515 5517 5517 5518 5521 5521 5522 5523 5526 5528 5531 5534 5536
Wind_Speed
42 45 46 48 48 48 48 49 49 48 50 51 51 52 53 52 54 54 54 54 54 53 54 55 55 53 51 51 49 56 64 65 65 61 60 61 61 59 57 55 51 49 46 44 42 38 38
48 49 51 52 52 50 49 49 47 46 48 50 52 50 51 52 52 53 54 55 55 57 58 60 62 61 62 62 50 56 61 62 63 64 63 62 63 63 62 60 58 56 53 49 46 46 43
58 57 56 56 53 50 48 46 46 47 48 47 48 49 50 52 52 53 55 57 59 60 61 62 65 67 67 60 56 58 58 59 59 60 63 64 64 67 67 65 62 60 59 52 50 48 47
59 58 57 55 51 48 47 45 45 44 44 47 49 48 49 51 52 54 56 59 61 62 64 66 70 71 68 64 63 62 61 59 57 55 58 62 64 66 65 68 67 61 62 60 53 51 47
53 53 51 49 46 47 46 44 43 43 45 45 47 46 48 51 54 56 58 59 61 64 66 71 74 76 73 70 71 70 67 62 59 57 55 57 61 64 67 64 69 68 64 63 60 58 50
47 48 47 47 44 44 42 41 41 42 43 44 44 47 50 55 58 59 59 64 66 70 75 83 90 92 84 83 79 75 72 68 64 58 58 55 57 63 65 66 62 68 69 67 67 60 54
47 48 46 44 41 41 40 39 41 41 42 43 45 48 54 57 59 62 65 68 75 84 83 86 89 95 89 88 89 82 78 74 68 64 59 55 55 54 55 61 60 68 70 70 66 64 60
46 45 44 42 38 39 40 40 40 40 42 44 47 51 54 57 61 64 69 77 81 85 83 71 73 70 67 62 76 79 77 75 68 61 59 57 49 51 56 57 59 67 69 68 66 67 61
44 47 44 39 39 39 39 38 37 41 42 45 49 51 54 58 63 67 71 74 78 73 70 44 30 36 35 41 53 55 61 67 62 54 56 53 46 49 53 53 57 61 59 64 66 65 60
45 48 43 39 41 37 36 36 39 40 42 47 48 50 54 59 63 64 66 72 67 61 37 11 19 28 25 20 37 49 52 51 50 45 46 49 51 52 51 48 51 57 59 59 63 57 56
44 47 43 40 36 34 33 36 38 40 44 45 47 50 55 59 58 59 66 64 54 22 7 11 16 16 19 11 20 39 38 45 44 42 45 47 49 48 48 43 46 51 48 49 53 53 52
47 45 40 34 33 31 34 34 37 40 44 44 47 50 55 53 53 58 56 52 21 14 12 12 22 8 12 7 10 28 33 38 38 38 41 43 42 44 39 38 37 39 42 44 41 43 49
47 42 35 33 30 32 32 34 36 40 42 44 46 51 52 46 50 53 45 38 15 12 7 7 17 6 4 1 6 19 26 30 34 36 38 42 40 40 34 32 32 36 34 30 33 40 46
43 37 32 30 31 30 31 33 35 39 40 43 46 49 46 44 48 45 37 26 17 14 12 9 12 11 12 2 3 13 19 27 31 36 37 37 37 38 33 32 26 24 20 21 23 24 26
36 36 31 31 30 30 31 32 36 37 38 41 45 46 41 42 44 39 30 21 16 11 15 20 18 13 4 3 13 6 16 21 26 29 34 33 34 34 29 28 29 30 32 26 25 25 27
41 32 32 30 30 29 30 32 34 35 36 40 42 43 39 40 39 33 23 16 13 13 18 18 17 13 9 11 17 15 13 17 20 23 28 30 33 31 31 27 25 26 23 26 27 28 28
35 33 32 31 28 28 29 32 32 33 34 38 39 40 36 39 34 27 17 10 6 5 10 15 13 14 15 5 11 14 16 16 20 20 21 27 26 26 26 26 24 27 27 28 27 24 25
35 37 31 32 28 28 27 31 30 31 32 36 36 37 33 35 29 22 13 7 3 1 4 10 8 10 13 10 9 8 5 14 20 21 26 28 25 23 24 24 24 24 22 22 21 24 25
36 37 32 34 28 29 28 29 29 29 30 32 32 33 31 31 24 19 12 7 2 1 3 5 7 8 7 9 10 7 9 9 7 12 11 12 18 18 19 17 18 18 20 21 22 25 25
38 41 38 36 29 31 31 27 27 28 29 29 30 29 28 26 21 17 11 8 3 3 4 5 6 5 6 6 7 10 10 11 12 15 16 16 11 15 17 18 20 20 21 23 23 24 23
42 41 40 33 30 32 28 25 25 26 28 27 26 26 25 21 16 15 12 9 7 5 4 5 5 3 3 5 8 10 12 14 14 15 16 16 17 17 16 18 20 21 23 23 23 23 24
45 41 38 32 36 33 30 24 24 25 25 24 24 24 21 18 13 14 13 9 6 3 0 1 0 2 6 9 11 14 16 19 17 16 16 17 18 17 19 19 20 21 20 21 22 23 23
46 40 38 39 37 35 30 24 23 24 22 21 21 22 17 15 11 11 10 8 5 3 3 4 7 10 12 12 12 11 14 18 20 20 15 14 14 12 11 12 15 20 21 21 20 20 20
44 45 43 40 39 36 30 24 23 24 20 19 20 20 16 11 12 11 8 6 6 8 10 9 10 11 12 5 7 12 11 8 15 20 21 15 9 9 10 13 17 21 21 23 23 23 22
45 41 40 40 39 36 31 24 24 24 20 17 19 18 16 15 9 7 8 10 10 9 10 10 10 11 9 3 4 7 5 6 3 6 17 19 13 12 12 13 14 16 19 22 24 22 21
42 44 44 42 38 32 26 25 26 25 20 18 19 18 18 16 15 13 13 12 11 10 9 10 11 10 6 2 4 3 3 3 4 10 11 16 12 15 14 12 12 10 13 20 23 22 22
39 38 38 36 31 27 26 26 27 26 21 19 20 18 20 16 19 16 14 14 14 13 12 11 12 10 6 7 1 1 2 2 6 12 9 10 8 6 7 15 14 14 16 22 22 21 22
40 37 34 31 28 26 27 29 29 27 23 20 21 20 20 18 19 19 18 18 17 15 14 14 13 11 7 12 6 4 2 6 7 6 9 11 10 7 6 12 17 22 16 16 19 19 19
43 40 36 33 31 32 32 32 30 27 25 23 19 23 22 19 17 20 21 18 17 15 15 18 15 11 8 12 12 5 6 3 6 10 10 11 12 11 10 10 17 17 13 13 16 16 15
Wind_Direction
279 284 287 290 294 293 290 288 287 287 289 289 290 291 290 290 291 290 291 292 292 290 289 287 284 279 276 274 271 266 259 256 254 251 249 248 246 245 243 244 243 240 242 242 245 244 242
281 284 286 288 291 290 286 285 284 286 288 288 289 289 289 289 290 291 293 293 292 291 290 289 286 283 280 277 266 264 262 258 255 252 249 247 245 245 244 243 243 243 239 238 238 242 246
278 281 284 286 287 285 282 282 283 285 285 286 287 289 289 290 291 293 294 293 292 291 289 286 283 282 278 274 270 262 260 258 256 254 250 246 244 243 241 243 242 242 243 242 242 242 244
277 278 279 280 280 280 279 281 283 284 286 288 287 287 289 290 290 293 294 295 293 292 290 287 283 279 277 274 264 262 258 256 256 253 251 247 244 243 243 241 241 241 244 245 243 243 240
274 274 274 274 273 274 277 280 281 282 285 285 288 291 292 292 293 296 296 294 292 290 288 283 278 274 274 270 262 258 259 256 253 253 252 247 244 243 242 242 240 240 239 242 245 245 243
269 268 269 268 267 271 274 278 281 284 285 289 292 293 295 297 298 299 298 296 296 293 290 286 283 278 271 266 261 257 254 253 250 246 246 246 245 242 242 241 243 241 239 239 243 246 247
265 265 264 263 266 271 277 280 281 286 290 291 292 296 300 300 301 302 302 302 299 297 295 293 288 281 272 262 257 251 249 247 245 243 241 243 243 245 245 242 240 240 238 238 238 240 241
265 262 261 267 271 274 277 280 284 289 290 291 295 299 301 303 305 307 308 308 307 307 302 301 292 287 276 258 249 244 240 243 241 237 236 238 246 245 241 239 237 241 239 236 234 237 233
265 266 265 266 269 272 275 280 284 287 290 293 298 301 305 308 311 313 314 314 316 316 315 315 316 316 296 259 239 231 229 230 233 230 231 236 241 243 244 241 238 237 241 240 239 236 234
266 265 261 264 268 271 274 279 286 289 294 297 300 305 310 313 316 317 319 321 323 319 325 11 353 344 327 261 221 207 206 212 216 221 223 227 231 235 238 238 238 236 237 236 238 239 238
264 261 259 261 264 267 274 281 287 292 295 300 304 311 314 319 319 323 325 328 328 333 344 25 29 337 321 283 210 203 202 210 213 214 218 225 230 232 237 239 236 232 229 233 233 234 230
260 259 257 257 260 268 275 282 288 292 297 303 309 315 320 324 324 329 329 332 336 347 332 327 8 350 341 320 209 202 207 206 204 206 209 217 223 230 233 229 231 227 231 234 233 234 236
261 252 252 253 261 267 276 283 289 294 300 306 314 317 325 324 331 332 331 334 297 338 303 315 24 107 355 22 176 197 198 202 205 202 204 213 218 223 225 233 224 220 218 221 226 228 233
253 251 246 252 260 271 277 286 291 296 302 310 316 321 328 328 334 333 332 328 288 307 285 276 28 92 164 69 147 201 201 206 206 204 206 210 213 218 219 227 222 217 216 218 231 234 238
244 239 242 253 263 270 277 287 293 297 305 314 319 326 328 333 335 333 333 323 296 291 286 273 290 61 165 120 142 186 202 209 212 210 210 211 215 219 221 224 220 217 218 216 218 229 236
234 235 245 253 263 270 277 287 294 299 308 317 323 328 330 334 337 335 334 322 315 272 291 288 293 302 37 148 152 155 197 206 207 208 218 217 221 223 223 228 234 223 221 226 229 232 243
229 238 242 253 261 271 278 287 293 300 311 318 324 331 333 335 337 336 331 323 318 305 272 284 291 314 330 53 125 130 176 203 206 208 211 220 219 224 223 218 217 227 221 222 230 237 241
228 237 243 251 261 270 278 286 295 301 312 318 326 329 333 335 337 337 326 314 331 330 253 286 302 301 304 315 319 172 205 151 170 224 218 212 209 209 225 229 230 226 217 225 234 237 240
233 235 242 248 256 268 275 284 296 301 312 319 326 328 333 335 337 337 316 305 325 225 190 227 286 287 286 293 298 288 279 258 196 197 149 192 210 206 219 227 232 227 225 227 226 233 235
233 242 243 248 258 267 272 281 293 300 309 319 325 326 333 335 335 337 312 290 289 225 207 211 217 237 266 270 273 273 262 253 251 244 232 213 198 187 192 211 222 219 228 228 231 236 241
233 240 244 250 257 264 268 278 289 296 306 315 322 326 332 336 332 335 313 279 286 296 259 211 195 194 220 250 262 265 261 257 248 239 239 239 238 235 223 217 224 225 229 232 236 241 248
235 237 244 254 259 261 264 275 282 292 301 310 317 323 329 336 329 328 316 302 307 308 301 168 274 342 330 329 308 296 275 258 244 242 244 242 239 236 236 235 232 232 233 236 240 246 249
239 246 248 249 257 260 264 267 275 285 294 301 310 315 321 343 330 323 315 317 323 321 356 342 336 343 343 330 320 313 286 255 230 222 224 240 251 237 235 240 245 244 240 243 242 243 249
247 245 246 248 254 262 259 262 268 275 285 292 298 308 311 323 350 337 331 344 356 343 336 340 334 334 331 329 341 338 305 251 204 210 208 196 217 245 246 249 244 250 247 245 245 247 246
246 248 250 256 254 253 252 258 263 268 275 279 285 295 301 287 291 310 315 314 316 313 315 325 323 325 327 285 346 345 45 128 176 225 207 202 219 236 229 231 247 241 235 232 231 240 239
245 248 248 250 249 246 247 253 257 261 267 268 271 282 292 283 275 275 285 288 289 291 298 305 314 319 324 214 6 21 157 143 183 164 195 195 180 206 223 201 208 216 198 216 218 224 234
238 238 240 242 241 243 244 247 252 255 258 260 265 273 281 278 279 278 281 282 283 285 292 298 304 311 305 215 232 38 204 220 151 175 208 208 152 152 220 221 226 227 191 205 207 214 222
244 247 247 246 245 240 239 242 245 249 252 253 260 265 270 278 272 279 279 276 278 284 289 294 292 298 286 217 211 189 179 212 228 219 186 199 220 230 249 226 216 207 204 183 202 207 219
242 240 239 237 235 234 234 236 239 242 246 250 253 258 267 272 272 272 277 280 285 284 284 284 279 277 260 222 210 213 194 190 211 228 220 223 205 211 217 225 212 188 197 201 210 215 218